Location: Gollag?dem
(17.0207°N, 80.7261°E)
Time: 07:32:51
(UTC+00:00)

SWIFT - Pass Details

Date: 03 August 2024
Orbit: 494 x 503 km, 20.6° (Epoch: 10 September)

Event Time Altitude Azimuth Distance (km) Brightness Sun altitude
Rises 13:39:05 0° 244° (WSW) 2,606 6.5 -7.7°
Reaches altitude 10° 13:41:23 10° 238° (WSW) 1,718 5.4 -8.2°
Maximum altitude 13:45:14 48° 163° (SSE) 664 2.5 -9.0°
Enters shadow 13:48:49 11° 89° (E) 1,617 4.1 -9.8°
